World > North America > United States > Mississippi > Verona  

Verona, MS Hourly Weather Updates

Feedback E-mail the Weather

Quick Clicks

Verona, MS Weather Maps

°F °C°F °C
Verona Weather Map
UTC Time: 5/19/2024, 12:05
Your Time:

Verona, MS Regional Weather

Expires:202405191200;;477198
ASUS44 KJAN 191110
RWRMS 

MISSISSIPPI HOURLY WEATHER ROUNDUP
NATIONAL WEATHER SERVICE JACKSON MS
600 AM CDT SUN MAY 19 2024

NOTE: "FAIR: INDICATES FEW OR NO CLOUDS BELOW 12,000 FEET WITH NO
SIGNIFICANT WEATHER AND/OR OBSTRUCTIONS TO VISIBILITY.


MSZ003>006-009-014>017-022>024-029>033-037>039-191200-
NORTHEAST MISSISSIPPI
  
CITY           SKY/WX    TMP DP  RH WIND       PRES   REMARKS
ABERDEEN       FOG       61  61 100 CALM      29.97R VSB<1/4          
COLUMBUS AFB   NOT AVBL                                               
CORINTH        FOG       61  61 100 CALM      29.97R VSB 1/4          
GOLDN TRIANGLE CLEAR     63  63 100 NW6       29.97R                  
IUKA           FOG       64  64 100 CALM      29.97R VSB<1/4          
LOUISVILLE     CLEAR     61  61 100 CALM      30.00R                  
STARKVILLE     CLEAR     63  63 100 CALM      29.95R                  
TUPELO         CLEAR     63  61  93 CALM      29.96R                  
$$


SKY/WX - Weather  TMP - Temperature  DP - Dew Point  RH - Humidity
WIND - Wind Direction/Speed PRES - Barometric Pressure VSB - Visibility
WCI - Wind Chill Index E13G22 Wind - East Wind 13 mph/Gusts of 22 mph

Trending Headlines

Trending Entertainment Headlines

Verona Radar Loop

Use the map search tool if you want to place a location marker on the radar map...

Verona Quick Facts

National Two Day Weather Forecast


E-mail the Verona Weather Forecast

Voice your opinion or tell us about page issues...